Regional Weather Roundup
Issued by NWS

Home | Current Version | Previous Version | Graphics & Text | Print | Product List | Glossary On
Versions: 1 2 3 4 5 6 7 8 9 10 11 12 13 14 15 16 17 18 19 20 21 22 23 24 25 26 27 28 29 30 31 32 33 34 35 36 37 38 39 40 41 42 43 44 45 46 47 48 49 50
000
ASUS43 KIND 270509
RWRIN

WEATHER ROUNDUP FOR INDIANA
NATIONAL WEATHER SERVICE INDIANAPOLIS IN
100 AM EDT THU JUL 27 2017

NOTE: "FAIR" INDICATES FEW OR NO CLOUDS BELOW 12,000 FEET WITH NO
SIGNIFICANT WEATHER AND/OR OBSTRUCTIONS TO VISIBILITY.

* - STATION DOES NOT REPORT WEATHER SUCH AS PRECIPITATION OR FOG.

+ - STATION NOT QUALITY CONTROLLED BY THE NATIONAL WEATHER SERVICE.
    USE DATA WITH CAUTION...ESPECIALLY DEWPOINT AND RELATIVE
    HUMIDITY OBSERVATIONS.

INZ001>003-010>013-019-020-270600-
NORTHWEST INDIANA

CITY           SKY/WX    TMP DP  RH WIND       PRES   REMARKS
GARY /AIRPORT/ CLOUDY    78  71  79 SE6       29.95F
KNOX *+        CLOUDY    72  70  94 E5        29.96F
LA PORTE +     CLOUDY    72  69  92 SE3       29.98F
MICHIGAN CITY+ CLOUDY    73  68  83 CALM      29.97F
MONTICELLO +   MOCLDY    74  71  88 SE3       29.95F
RENSSELAER +   HVY RAIN  73  70  88 CALM      29.95F
VALPARAISO     MOCLDY    74  71  91 E5        29.96F

$$

LMZ046-743>745-270600-
SOUTHERN LAKE MICHIGAN

STATION/POSITION TIME  TEMP    WIND        PRES    WAVE
                       AIR SEA DIR/SP/G            HT
                 (UTC) (F)     (DEG/KT/KT) (MB)    (FT)
BURNS HARBOR     0440   78     160/  9/ 13 1014.9F
MICHIGAN CITY    0440   76     140/  5/  6   N/A
5NW MICH CITY    0500   76 75  140/  6/  6   N/A     0

$$

INZ004-005-014>016-021>024-270600-
NORTH CENTRAL INDIANA

CITY           SKY/WX    TMP DP  RH WIND       PRES   REMARKS
GOSHEN         CLOUDY    73  65  75 SE6       29.99F
LOGANSPORT +   MOCLDY    70  70 100 E5        29.97F
PERU/GRISSOM     N/A    N/A N/A N/A SE6         N/A
ROCHESTER +    CLOUDY    73  70  88 E5        29.98F HAZE
SOUTH BEND     CLOUDY    74  69  85 S6        29.98F
WARSAW +       CLOUDY    72  66  83 CALM      30.00F

$$

INZ006>009-017-018-025>027-270600-
NORTHEAST INDIANA

CITY           SKY/WX    TMP DP  RH WIND       PRES   REMARKS
AUBURN +       CLOUDY    70  64  83 CALM      30.01F
FORT WAYNE     CLOUDY    71  67  87 SE5       30.00F
HUNTINGTON +   CLOUDY    72  67  85 SE3       29.99F
KENDALLVILLE + CLOUDY    71  66  85 S3        30.02F

$$

INZ028-029-035-036-043>045-051>053-270600-
WEST CENTRAL INDIANA

CITY           SKY/WX    TMP DP  RH WIND       PRES   REMARKS
GREENCASTLE +  CLOUDY    73  72  94 CALM      29.98F
LAFAYETTE      CLOUDY    75  73  93 E6        29.94F
TERRE HAUTE    CLOUDY    78  73  84 S3        29.97F

$$

INZ030>032-037>040-046>048-054>057-064-065-270600-
CENTRAL INDIANA

CITY           SKY/WX    TMP DP  RH WIND       PRES   REMARKS
CP ATTERBURY + MOCLDY    72  70  94 CALM      29.98F FOG
FRANKFORT +    MOCLDY    76  73  92 SE5       29.99F
GREENWOOD *+   CLOUDY   N/A N/A N/A SE5       29.99F
INDIANAPOLIS   CLOUDY    77  72  84 SE6       29.97F
-EAGLE CREEK   CLOUDY    78  71  79 SE3       29.97F
KOKOMO +       CLOUDY    72  70  93 SE3       29.99F
MARION +       CLOUDY    72  68  88 SE3       30.00F
MT COMFORT *+  CLOUDY    73  70  88 SE3       30.01S
SHELBYVILLE    CLOUDY    74  69  85 E6        29.98F
ZIONSVILLE +   CLOUDY    74  71  92 E3        29.99F

$$

INZ033-034-041-042-049-050-058-059-270600-
EAST CENTRAL INDIANA

CITY           SKY/WX    TMP DP  RH WIND       PRES   REMARKS
MUNCIE         CLOUDY    76  67  73 SE5       30.00F
RICHMOND +     MOCLDY    68  66  94 SE6       30.02F

$$

INZ060-061-067>069-081>083-085>088-270600-
SOUTHWEST INDIANA

CITY           SKY/WX    TMP DP  RH WIND       PRES   REMARKS
EVANSVILLE     CLOUDY    77  72  84 SW3       29.99F
HUNTINGBURG *+ MOCLDY    74  73  97 S5        30.00F

$$

INZ062-063-066-070>080-084-089>092-270600-
SOUTH CENTRAL AND SOUTHEAST INDIANA

CITY           SKY/WX    TMP DP  RH WIND       PRES   REMARKS
BEDFORD +      CLOUDY    73  68  83 CALM      29.98
BLOOMINGTON    CLOUDY    74  69  85 CALM      29.99F HAZE
MADISON *+     PTCLDY    73  72  94 S3        30.02F
NORTH VERNON + MOCLDY    73  70  88 SE3       30.00F
SEYMOUR +      PTCLDY    75  70  83 S6        29.98

$$





USA.gov is the U.S. government's official web portal to all federal, state and local government web resources and services.